Погода в Мирном

Россия / Хабаровский край     48°29′16″N   135°13′29″E
темп.,
°C
ветер,
м/с
пор.,
м/с
влажн.,
%
обл.,
%
осадки,
мм/ч
давл.,
гПа
погр.,
м
20 июня, вс
вс2001:00+15вюв51162100 0.0 1004232
04:00+13вюв3761100 0.0 1005138
07:00+13в51052100 0.0 1006354
10:00+17в585294 0.0 1006805
13:00+20в684490 0.0 10061514
16:00+22св464495 0.0 10041146
19:00+20ссв496897 0.0 1005275
22:00+15в357398 0.0 100681
21 июня, пн
пн2101:00+13ююв475192 0.0 1007105
04:00+11вюв22510 0.0 100721
07:00+12вюв23650 0.0 1009101
10:00+18в46545 0.0 1009495
13:00+22св234774 0.0 1008907
16:00+23св2245100 0.0 10071003
19:00+22сз23655 0.0 1007143
22:00+16зсз117028 0.0 100811
22 июня, вт
вт2201:00+14зюз227273 0.0 100915
04:00+13юз227637 0.0 101019
07:00+15ююз237611 0.0 1010105
10:00+21юз3559100 0.0 1010641
13:00+24зюз5652100 0.0 10101016
16:00+25зюз57519 0.0 10081158
19:00+23зюз3766100 0.0 1008225
22:00+18с2279100 0.0 100922
23 июня, ср
ср2301:00+17зюз4777100 0.3 1009114
04:00+17ююз347420 0.4 100863
07:00+17ююз397916 0.0 1009245
10:00+23зюз610596 0.0 1008669
13:00+26зюз795294 0.0 10081150
16:00+27з6751100 0.0 10071566
19:00+24з4971100 0.3 1006315
22:00+17з3895100 1.5 1007189
24 июня, чт
чт2401:00+17юз3695100 0.0 1007169
04:00+17зюз249588 1.4 100793
07:00+18ююв119399 1.1 1007116
10:00+22юз237583 1.3 1007753
13:00+24з346697 0.0 10061228
16:00+22сз2384100 1.0 1006229
19:00+21с238793 4.8 100569
22:00+17св4797100 7.1 1007222